User: anonymous   Login
Location: Arcueil
(48.7999°N, 2.3326°E)
Time: 08:40:02
(UTC+00:00)
Language:

CZ-4 R/B - Orbit

View from above orbital plane
View from above orbital plane
View from above satellite
View from above satellite

Ground track
Ground track

The orbit data is extracted from the following two-line orbital elements,

1 29507U 06046C   24114.05744019  .00010137  00000-0  66779-3 0  9991
2 29507  97.6481 150.4423 0042245 105.0532 255.5376 15.06965110956469
Epoch (UTC): 23 April 2024 01:22:42
Eccentricity: 0.0042245
inclination: 97.6481°
perigee height: 516 km
apogee height: 575 km
right ascension of ascending node: 150.4423°
argument of perigee: 105.0532°
revolutions per day: 15.06965110
mean anomaly at epoch: 255.5376°
orbit number at epoch: 95646

The dashed part of the orbit path shows where the satellite is in the earth's shadow,  

DLR